Location: Pinawa
(50.1500°N, 95.8830°W)
Time: 22:36:48
(UTC-06:00)

Amateur Radio Satellites - All Passes

Search period start: 22 November 2014 22:06
Search period end: 23 November 2014 22:06
Location: Pinawa, 50.1500°N, 95.8830°W

Satellite Date Start Highest point End Downlink Frequencies (MHz)
Time Altitude Azimuth
RS-15 22 Nov 22:08:20 22:18:24 39° 7° (N) 22:28:45 29.354- 29.394
HUMSAT D 22 Nov 22:13:09 22:17:17 70° 258° (WSW) 22:21:25 437.325/437.525
COMPASS 1 22 Nov 22:13:23 22:14:56 12° 273° (W) 22:16:28 437.405
GOMX 1 22 Nov 22:14:50 22:17:29 15° 271° (W) 22:20:03 467.674
AISAT 22 Nov 22:14:51 22:19:18 63° 258° (WSW) 22:23:46 437.250
TIGRISAT 22 Nov 22:20:00 22:23:28 23° 93° (E) 22:26:58 435.000
DELFI C3 22 Nov 22:22:13 22:25:16 20° 268° (W) 22:28:21 145.870
POLYITAN 1 22 Nov 22:22:40 22:25:29 17° 90° (E) 22:28:17 437.675
QB50P2 22 Nov 22:26:04 22:29:04 19° 91° (E) 22:32:02 145.880/145.840
50 SAT 22 Nov 22:26:15 22:30:15 59° 259° (W) 22:34:15 437.505
UNISAT 6 22 Nov 22:31:20 22:35:11 29° 95° (E) 22:39:05 437.425
DUCHIFAT 1 22 Nov 22:34:19 22:37:36 22° 92° (E) 22:40:52 145.980
FUNcube-1 22 Nov 22:39:40 22:43:13 26° 266° (W) 22:46:44 145.935
CUBEBUG 1 22 Nov 22:41:15 22:45:43 89° 255° (WSW) 22:50:12 437.445
UKube-1 22 Nov 22:44:22 22:46:27 13° 272° (W) 22:48:32 .
SPROUT 22 Nov 22:44:41 22:48:21 27° 64° (ENE) 22:52:01 437.525
TISAT 1 22 Nov 22:45:59 22:49:46 32° 66° (ENE) 22:53:34 437.305
HO-68 22 Nov 22:48:47 22:50:21 11° 280° (W) 22:51:56 435.675
CUBEBUG 2 22 Nov 22:49:56 22:52:42 17° 270° (W) 22:55:27 437.445
NANOSAT C BR1 22 Nov 22:52:45 22:56:35 32° 96° (E) 23:00:22 145.865
CINEMA 3 22 Nov 22:53:30 22:54:51 11° 273° (W) 22:56:11 145.822/145.860
UWE-3 22 Nov 22:57:53 23:00:30 16° 270° (W) 23:03:06 435.000/436.395/437.385
ANTELSAT 22 Nov 22:59:23 23:03:41 53° 100° (E) 23:08:05 437.575/2403.000
QB50P1 22 Nov 23:02:02 23:06:02 40° 98° (E) 23:10:01 145.935-145.965
AUBIESAT-1 22 Nov 23:06:34 23:09:52 23° 54° (NE) 23:13:22 437.475
BEESAT 3 22 Nov 23:08:25 23:12:11 32° 323° (NW) 23:16:00 437.485
M-CUBED/EXP-1 PRIME 22 Nov 23:09:04 23:12:29 26° 55° (NE) 23:16:09 437.505
ESTCUBE 1 22 Nov 23:13:17 23:17:38 44° 261° (W) 23:22:02 437.505/2401.250
BEESAT 2 22 Nov 23:21:05 23:24:45 29° 325° (NW) 23:28:29 435.950
PCSat 22 Nov 23:23:23 23:27:38 23° 331° (NNW) 23:31:55 145.827
POPSAT HIP 1 22 Nov 23:26:14 23:30:28 70° 103° (ESE) 23:34:40 437.405
VELOX 1 22 Nov 23:30:01 23:32:26 14° 272° (W) 23:34:51 145.980
ITUPSAT 1 22 Nov 23:30:44 23:34:09 20° 58° (ENE) 23:37:35 437.325
BUGSAT 1 22 Nov 23:31:31 23:35:39 66° 102° (ESE) 23:39:42 437.445
AIST 2 22 Nov 23:39:21 23:43:16 34° 322° (NW) 23:47:15 435.215
SWISSCUBE 22 Nov 23:42:27 23:46:23 26° 61° (ENE) 23:50:20 437.505
CUSAT 1 22 Nov 23:50:45 23:54:30 43° 75° (ENE) 23:59:27 437.405
TIGRISAT 22 Nov 23:56:17 00:00:27 46° 291° (WNW) 00:04:41 435.000
POLYITAN 1 22 Nov 23:57:40 00:01:50 57° 289° (WNW) 00:05:58 437.675
DANDE 23 Nov 00:01:02 00:04:39 44° 75° (ENE) 00:09:27 436.750
QB50P2 23 Nov 00:01:11 00:05:19 53° 289° (WNW) 00:09:26 145.880/145.840
UNISAT 6 23 Nov 00:08:03 00:12:03 36° 293° (WNW) 00:16:07 437.425
DUCHIFAT 1 23 Nov 00:09:40 00:13:42 45° 291° (WNW) 00:17:43 145.980
BEESAT 23 Nov 00:13:36 00:18:06 42° 67° (ENE) 00:22:38 436.000
SPROUT 23 Nov 00:20:18 00:24:20 38° 263° (W) 00:28:23 437.525
CUBEBUG 1 23 Nov 00:21:10 00:22:46 12° 274° (W) 00:24:23 437.445
TISAT 1 23 Nov 00:21:47 00:25:37 31° 264° (W) 00:29:27 437.305
RS-15 23 Nov 00:22:17 00:33:18 63° 38° (NE) 00:44:44 29.354- 29.394
NANOSAT C BR1 23 Nov 00:28:44 00:32:27 30° 295° (WNW) 00:36:08 145.865
Oscar 19 23 Nov 00:33:25 00:35:34 12° 85° (E) 00:37:42 437.125/150
ANTELSAT 23 Nov 00:36:54 00:40:13 21° 299° (WNW) 00:43:34 437.575/2403.000
QB50P1 23 Nov 00:38:19 00:41:47 25° 297° (WNW) 00:45:15 145.935-145.965
AUBIESAT-1 23 Nov 00:40:35 00:44:32 52° 255° (WSW) 00:48:53 437.475
M-CUBED/EXP-1 PRIME 23 Nov 00:43:26 00:47:18 45° 256° (WSW) 00:51:34 437.505
YUBILEINY 23 Nov 00:48:05 00:49:13 10° 65° (ENE) 00:50:21 435.215
BEESAT 3 23 Nov 00:49:41 00:51:40 13° 346° (NNW) 00:53:39 437.485
ISS 23 Nov 01:00:39 01:03:06 20° 142° (SE) 01:05:33 145.825
MaSat-1 23 Nov 01:02:04 01:04:23 67° 58° (ENE) 01:06:42 437.345
BEESAT 2 23 Nov 01:02:32 01:04:22 13° 348° (NNW) 01:06:13 435.950
POPSAT HIP 1 23 Nov 01:03:17 01:05:54 16° 301° (WNW) 01:08:31 437.405
STARS 23 Nov 01:04:25 01:07:50 22° 61° (ENE) 01:11:15 437.465
ITUPSAT 1 23 Nov 01:06:46 01:11:34 71° 257° (WSW) 01:16:25 437.325
BUGSAT 1 23 Nov 01:08:08 01:10:42 16° 301° (WNW) 01:13:15 437.445
PCSat 23 Nov 01:10:34 01:13:08 13° 356° (N) 01:15:43 145.827
ITAMSAT 1 23 Nov 01:18:38 01:20:53 13° 85° (E) 01:23:08 435.822/435.867
SWISSCUBE 23 Nov 01:19:20 01:24:00 50° 260° (W) 01:28:43 437.505
AIST 2 23 Nov 01:20:54 01:23:09 14° 345° (NNW) 01:25:24 435.215
CUSAT 1 23 Nov 01:34:22 01:37:36 22° 265° (W) 01:41:34 437.405
KKS-1 23 Nov 01:36:32 01:40:55 58° 71° (ENE) 01:45:18 437.445
DANDE 23 Nov 01:45:09 01:48:06 20° 266° (W) 01:51:40 436.750
BEESAT 23 Nov 01:51:57 01:56:06 29° 266° (W) 02:00:16 436.000
Oscar 19 23 Nov 02:10:34 02:15:46 79° 104° (ESE) 02:20:56 437.125/150
BEESAT 3 23 Nov 02:30:04 02:31:41 12° 10° (N) 02:33:18 437.485
RS-15 23 Nov 02:34:59 02:45:40 55° 244° (WSW) 02:56:48 29.354- 29.394
YUBILEINY 23 Nov 02:35:22 02:43:41 49° 88° (E) 02:51:59 435.215
ISS 23 Nov 02:36:05 02:39:22 76° 160° (SSE) 02:42:40 145.825
AO-7 23 Nov 02:38:03 02:39:00 10° 79° (ENE) 02:39:58 29.400- 29.500
HORYU 2 23 Nov 02:39:29 02:42:22 17° 90° (E) 02:45:15 437.375
STARS 23 Nov 02:39:45 02:44:02 51° 260° (W) 02:48:21 437.465
BEESAT 2 23 Nov 02:42:38 02:44:27 12° 12° (NNE) 02:46:17 435.950
PCSat 23 Nov 02:55:04 02:58:48 18° 23° (NNE) 03:02:32 145.827
ITAMSAT 1 23 Nov 02:56:01 03:01:14 80° 105° (ESE) 03:06:25 435.822/435.867
AIST 2 23 Nov 03:01:43 03:03:35 12° 10° (N) 03:05:26 435.215
Gurwin Techsat 1B 23 Nov 03:08:14 03:13:32 64° 102° (ESE) 03:18:48 435.225
KKS-1 23 Nov 03:14:49 03:17:56 19° 269° (W) 03:21:05 437.445
SO-50 23 Nov 03:42:38 03:43:55 11° 107° (ESE) 03:45:13 436.795
Oscar 19 23 Nov 03:50:56 03:54:32 20° 304° (WNW) 03:58:08 437.125/150
MOZHAYETS 4 23 Nov 03:53:28 03:57:51 45° 69° (ENE) 04:02:16
BEESAT 3 23 Nov 04:07:45 04:11:19 26° 33° (NNE) 04:14:51 437.485
ISS 23 Nov 04:12:50 04:16:07 65° 0° (N) 04:19:25 145.825
HORYU 2 23 Nov 04:15:03 04:19:31 66° 288° (WNW) 04:23:58 437.375
BEESAT 2 23 Nov 04:20:22 04:24:05 29° 35° (NE) 04:27:46 435.950
AO-7 23 Nov 04:25:50 04:33:57 51° 101° (E) 04:42:01 29.400- 29.500
YUBILEINY 23 Nov 04:32:10 04:40:35 47° 291° (WNW) 04:49:01 435.215
ITAMSAT 1 23 Nov 04:36:32 04:40:09 20° 304° (NW) 04:43:45 435.822/435.867
JAS-2 23 Nov 04:37:17 04:43:19 27° 87° (E) 04:48:49 435.910
PCSat 23 Nov 04:38:09 04:43:29 52° 47° (NE) 04:48:46 145.827
STRAND 1 23 Nov 04:38:18 04:41:35 17° 54° (NE) 04:44:52 437.568
AIST 2 23 Nov 04:39:58 04:43:39 26° 33° (NNE) 04:47:18 435.215
PRISM 23 Nov 04:42:13 04:45:56 31° 65° (ENE) 04:49:42 437.425
Gurwin Techsat 1B 23 Nov 04:48:54 04:53:06 24° 301° (WNW) 04:57:18 435.225
RS-15 23 Nov 04:50:56 04:55:17 13° 268° (W) 04:59:43 29.354- 29.394
Cubesat XI-IV 23 Nov 05:12:04 05:13:17 11° 83° (E) 05:14:30 437.490
SO-50 23 Nov 05:19:02 05:23:34 70° 127° (SE) 05:28:15 436.795
CUBESAT XI-V 23 Nov 05:25:38 05:29:52 34° 65° (ENE) 05:34:08 437.345
MOZHAYETS 4 23 Nov 05:31:31 05:35:18 25° 268° (W) 05:39:07
BEESAT 3 23 Nov 05:45:44 05:49:55 65° 234° (SW) 05:54:03 437.485
ISS 23 Nov 05:49:33 05:52:51 73° 200° (SSW) 05:56:09 145.825
CUTE-I 23 Nov 05:52:04 05:56:19 24° 92° (E) 06:00:33 437.470
HORYU 2 23 Nov 05:54:09 05:55:22 11° 308° (NW) 05:56:34 437.375
BEESAT 2 23 Nov 05:58:30 06:02:39 55° 236° (SW) 06:06:45 435.950
STRAND 1 23 Nov 06:14:56 06:20:06 90° 74° (ENE) 06:25:18 437.568
PRISM 23 Nov 06:17:43 06:21:29 31° 264° (W) 06:25:18 437.425
AIST 1 23 Nov 06:17:55 06:21:32 24° 68° (ENE) 06:25:07
AIST 2 23 Nov 06:18:22 06:22:41 67° 234° (SW) 06:26:55 435.215
AO-7 23 Nov 06:18:51 06:26:45 49° 302° (WNW) 06:34:39 29.400- 29.500
JAS-2 23 Nov 06:21:40 06:29:09 74° 290° (WNW) 06:35:46 435.910
PCSat 23 Nov 06:21:54 06:26:44 33° 247° (WSW) 06:31:32 145.827
GONETS M04 23 Nov 06:35:54 06:38:37 12° 66° (ENE) 06:41:20
YUBILEINY 23 Nov 06:36:17 06:40:13 13° 318° (NW) 06:44:09 435.215
O/OREOS (USA 219) 23 Nov 06:43:46 06:48:00 42° 109° (ESE) 06:52:15 437.305
Cubesat XI-IV 23 Nov 06:49:04 06:54:25 68° 103° (ESE) 06:59:42 437.490
SO-50 23 Nov 07:00:33 07:04:33 28° 329° (NNW) 07:08:41 436.795
CUBESAT XI-V 23 Nov 07:02:58 07:07:18 35° 264° (W) 07:11:39 437.345
ISS 23 Nov 07:26:42 07:29:07 19° 219° (SW) 07:31:31 145.825
CUTE-I 23 Nov 07:31:33 07:36:48 59° 291° (WNW) 07:42:00 437.470
AIST 1 23 Nov 07:55:14 07:59:23 41° 268° (W) 08:03:29
STRAND 1 23 Nov 07:57:13 08:00:02 15° 273° (W) 08:02:51 437.568
CANX-2 23 Nov 08:03:19 08:04:37 11° 86° (E) 08:05:55 2200.000
JAS-2 23 Nov 08:07:44 08:12:55 21° 312° (NW) 08:17:48 435.910
AO-7 23 Nov 08:12:50 08:17:39 17° 326° (NNW) 08:22:28 29.400- 29.500
COMPASS 1 23 Nov 08:16:46 08:17:24 10° 85° (E) 08:18:03 437.405
HO-68 23 Nov 08:16:55 08:22:34 24° 90° (E) 08:28:11 435.675
O/OREOS (USA 219) 23 Nov 08:23:38 08:27:34 29° 309° (NW) 08:31:29 437.305
GONETS M04 23 Nov 08:24:48 08:33:13 53° 89° (E) 08:41:43
ANTELSAT 23 Nov 08:29:46 08:31:31 12° 55° (NE) 08:33:16 437.575/2403.000
Cubesat XI-IV 23 Nov 08:29:56 08:34:03 23° 303° (WNW) 08:38:09 437.490
GOMX 1 23 Nov 08:32:44 08:34:53 14° 88° (E) 08:37:01 467.674
CUTE 1.7 & AOD 2 23 Nov 08:36:46 08:40:08 22° 92° (E) 08:43:29 437.475
SO-50 23 Nov 08:43:55 08:46:38 15° 353° (N) 08:49:23 436.795
BRITE-PL 23 Nov 08:44:31 08:47:55 24° 93° (E) 08:51:17 437.365/2234.400
POPSAT HIP 1 23 Nov 08:50:30 08:52:43 14° 57° (ENE) 08:54:56 437.405
BUGSAT 1 23 Nov 08:53:37 08:55:32 13° 56° (NE) 08:57:27 437.445
Oscar 11 23 Nov 09:03:37 09:06:14 16° 89° (E) 09:08:50 145.826/435.025
CINEMA 3 23 Nov 09:04:16 09:06:30 14° 89° (E) 09:08:45 145.822/145.860
SEEDS 23 Nov 09:13:21 09:17:26 43° 98° (E) 09:21:31 437.485
CUTE-I 23 Nov 09:13:44 09:15:50 12° 311° (NW) 09:17:55 437.470
POLYITAN 1 23 Nov 09:20:34 09:24:03 25° 63° (ENE) 09:27:33 437.675
DX 1 23 Nov 09:21:55 09:25:10 20° 92° (E) 09:28:23 434.975-435.025
TIGRISAT 23 Nov 09:23:35 09:27:27 34° 67° (ENE) 09:31:19 435.000
QB50P2 23 Nov 09:23:45 09:27:20 27° 64° (ENE) 09:30:55 145.880/145.840
DUCHIFAT 1 23 Nov 09:31:39 09:35:24 31° 65° (ENE) 09:39:09 145.980
UNISAT 6 23 Nov 09:35:14 09:39:18 45° 69° (ENE) 09:43:23 437.425
AAUSAT CUBESAT 2 23 Nov 09:36:28 09:40:39 56° 100° (E) 09:44:49 437.432
CANX-2 23 Nov 09:36:54 09:41:13 90° 290° (WNW) 09:45:31 2200.000
VELOX 1 23 Nov 09:39:54 09:40:51 11° 86° (E) 09:41:48 145.980
DOVE 4 23 Nov 09:41:29 09:45:31 49° 100° (E) 09:49:36 437.250
ZACube-1 23 Nov 09:47:35 09:50:37 19° 91° (E) 09:53:40 437.345
COMPASS 1 23 Nov 09:49:34 09:53:50 85° 104° (ESE) 09:58:05 437.405
NANOSAT C BR1 23 Nov 09:50:09 09:54:13 45° 69° (ENE) 09:58:17 145.865
HUMSAT D 23 Nov 09:54:37 09:56:52 14° 89° (E) 09:59:07 437.325/437.525
DELFI C3 23 Nov 09:57:21 10:01:18 42° 98° (E) 10:05:14 145.870
QB50P1 23 Nov 09:59:29 10:03:39 56° 71° (ENE) 10:07:50 145.935-145.965
AISAT 23 Nov 10:02:26 10:05:32 18° 91° (E) 10:08:37 437.250
ANTELSAT 23 Nov 10:03:22 10:07:39 84° 74° (ENE) 10:11:57 437.575/2403.000
HO-68 23 Nov 10:03:51 10:11:05 80° 291° (WNW) 10:18:14 435.675
50 SAT 23 Nov 10:04:00 10:06:15 14° 89° (E) 10:08:31 437.505
GOMX 1 23 Nov 10:09:24 10:13:33 67° 287° (WNW) 10:17:41 467.674
CUTE 1.7 & AOD 2 23 Nov 10:12:12 10:16:17 45° 290° (WNW) 10:20:22 437.475
GONETS M04 23 Nov 10:21:58 10:30:17 44° 293° (WNW) 10:38:41
BRITE-PL 23 Nov 10:22:45 10:26:38 38° 292° (WNW) 10:30:28 437.365/2234.400
FUNcube-1 23 Nov 10:22:53 10:26:51 40° 98° (E) 10:30:52 145.935
POPSAT HIP 1 23 Nov 10:23:46 10:28:03 85° 255° (WSW) 10:32:20 437.405
UKube-1 23 Nov 10:24:50 10:29:13 78° 104° (ESE) 10:33:33 .
SO-50 23 Nov 10:25:43 10:29:00 18° 18° (NNE) 10:32:20 436.795
BUGSAT 1 23 Nov 10:26:08 10:30:24 87° 75° (ENE) 10:34:40 437.445
CUBEBUG 1 23 Nov 10:27:45 10:29:41 13° 87° (E) 10:31:37 437.445
CUBEBUG 2 23 Nov 10:34:31 10:38:42 71° 102° (ESE) 10:42:58 437.445
Oscar 11 23 Nov 10:38:33 10:42:53 67° 287° (WNW) 10:47:12 145.826/435.025
CINEMA 3 23 Nov 10:40:04 10:44:13 68° 287° (WNW) 10:48:26 145.822/145.860
UWE-3 23 Nov 10:41:09 10:45:22 72° 103° (ESE) 10:49:37 435.000/436.395/437.385
SEEDS 23 Nov 10:49:39 10:53:05 24° 297° (WNW) 10:56:31 437.485
POLYITAN 1 23 Nov 10:55:48 10:59:51 41° 262° (W) 11:03:54 437.675
DX 1 23 Nov 10:57:28 11:01:43 51° 291° (WNW) 11:05:55 434.975-435.025
QB50P2 23 Nov 10:59:09 11:03:08 38° 262° (W) 11:07:09 145.880/145.840
TIGRISAT 23 Nov 11:00:35 11:04:17 28° 265° (W) 11:07:59 435.000
ESTCUBE 1 23 Nov 11:01:43 11:05:40 28° 94° (E) 11:09:35 437.505/2401.250
SHINDAISAT 23 Nov 11:04:33 11:05:22 13° 122° (ESE) 11:06:11 437.305
DUCHIFAT 1 23 Nov 11:07:25 11:11:15 32° 264° (W) 11:15:07 145.980
AAUSAT CUBESAT 2 23 Nov 11:13:00 11:15:59 19° 299° (WNW) 11:18:59 437.432
UNISAT 6 23 Nov 11:13:00 11:16:20 22° 268° (W) 11:19:41 437.425
VELOX 1 23 Nov 11:13:43 11:18:12 83° 104° (ESE) 11:22:37 145.980
CANX-2 23 Nov 11:14:29 11:16:32 13° 303° (WNW) 11:18:35 2200.000
DOVE 4 23 Nov 11:20:00 11:23:03 20° 298° (WNW) 11:26:07 437.250
ZACube-1 23 Nov 11:23:14 11:27:18 51° 289° (WNW) 11:31:25 437.345
COMPASS 1 23 Nov 11:26:50 11:28:59 14° 303° (WNW) 11:31:09 437.405
NANOSAT C BR1 23 Nov 11:27:01 11:30:20 22° 268° (W) 11:33:39 145.865
HUMSAT D 23 Nov 11:29:02 11:33:10 68° 287° (WNW) 11:37:19 437.325/437.525
DELFI C3 23 Nov 11:33:07 11:36:25 23° 297° (WNW) 11:39:43 145.870
QB50P1 23 Nov 11:37:00 11:39:55 18° 269° (W) 11:42:51 145.935-145.965
50 SAT 23 Nov 11:38:00 11:42:01 64° 287° (WNW) 11:46:03 437.505
AISAT 23 Nov 11:38:12 11:42:34 58° 289° (WNW) 11:46:54 437.250
ANTELSAT 23 Nov 11:43:29 11:45:06 12° 273° (W) 11:46:44 437.575/2403.000
HO-68 23 Nov 11:52:34 11:57:49 23° 312° (NW) 12:03:04 435.675
AO-7 23 Nov 11:53:39 11:55:58 11° 22° (NNE) 11:58:17 29.400- 29.500
Oscar 19 23 Nov 11:53:54 11:58:18 30° 62° (ENE) 12:02:43 437.125/150
FUNcube-1 23 Nov 11:59:40 12:03:04 25° 296° (WNW) 12:06:30 145.935
TISAT 1 23 Nov 12:02:10 12:05:53 29° 95° (E) 12:09:34 437.305
UKube-1 23 Nov 12:02:15 12:04:51 16° 303° (WNW) 12:07:26 .
CUBEBUG 1 23 Nov 12:02:17 12:06:42 83° 286° (WNW) 12:11:03 437.445
SPROUT 23 Nov 12:02:38 12:06:19 27° 94° (E) 12:09:58 437.525
POPSAT HIP 1 23 Nov 12:03:56 12:04:39 10° 274° (W) 12:05:22 437.405
BUGSAT 1 23 Nov 12:05:01 12:06:31 12° 273° (W) 12:08:02 437.445
SO-50 23 Nov 12:06:02 12:10:42 46° 41° (NE) 12:15:25 436.795
CUBEBUG 2 23 Nov 12:12:27 12:14:58 16° 301° (WNW) 12:17:30 437.445
Oscar 11 23 Nov 12:17:22 12:18:14 11° 306° (NW) 12:19:07 145.826/435.025
UWE-3 23 Nov 12:18:58 12:21:27 16° 301° (WNW) 12:23:56 435.000/436.395/437.385
AUBIESAT-1 23 Nov 12:21:33 12:22:18 10° 89° (E) 12:23:03 437.475
M-CUBED/EXP-1 PRIME 23 Nov 12:23:35 12:25:32 12° 91° (E) 12:27:28 437.505
GONETS M04 23 Nov 12:26:41 12:30:10 13° 321° (NW) 12:33:39
ESTCUBE 1 23 Nov 12:38:25 12:42:40 39° 293° (WNW) 12:46:52 437.505/2401.250
YUBILEINY 23 Nov 12:39:23 12:47:02 32° 61° (ENE) 12:54:35 435.215
ITAMSAT 1 23 Nov 12:40:09 12:44:45 32° 62° (ENE) 12:49:21 435.822/435.867
VELOX 1 23 Nov 12:51:39 12:54:12 15° 304° (WNW) 12:56:45 145.980
Gurwin Techsat 1B 23 Nov 12:55:27 12:59:51 27° 60° (ENE) 13:04:16 435.225
ITUPSAT 1 23 Nov 13:03:32 13:07:17 22° 92° (E) 13:11:01 437.325
CUSAT 1 23 Nov 13:10:26 13:12:36 22° 95° (E) 13:14:43 437.405
SWISSCUBE 23 Nov 13:15:21 13:19:36 30° 95° (E) 13:23:48 437.505
DANDE 23 Nov 13:23:13 13:25:38 26° 97° (E) 13:27:55 436.750
Oscar 19 23 Nov 13:32:34 13:37:28 46° 261° (W) 13:42:25 437.125/150
TISAT 1 23 Nov 13:37:58 13:41:46 33° 294° (WNW) 13:45:32 437.305
SPROUT 23 Nov 13:38:33 13:42:30 36° 293° (WNW) 13:46:25 437.525
AO-7 23 Nov 13:39:16 13:46:06 30° 47° (NE) 13:52:57 29.400- 29.500
CUBEBUG 1 23 Nov 13:40:25 13:42:23 13° 305° (NW) 13:44:19 437.445
HORYU 2 23 Nov 13:42:25 13:46:10 28° 63° (ENE) 13:49:56 437.375
SO-50 23 Nov 13:46:46 13:51:13 37° 240° (WSW) 13:55:42 436.795
BEESAT 23 Nov 13:46:49 13:51:33 53° 100° (E) 13:56:14 436.000
AUBIESAT-1 23 Nov 13:53:15 13:58:08 66° 108° (ESE) 14:03:00 437.475
M-CUBED/EXP-1 PRIME 23 Nov 13:56:23 14:01:19 76° 109° (ESE) 14:06:15 437.505
ITAMSAT 1 23 Nov 14:19:08 14:24:07 44° 261° (W) 14:29:07 435.822/435.867
STARS 23 Nov 14:25:46 14:29:10 22° 92° (E) 14:32:33 437.465
Gurwin Techsat 1B 23 Nov 14:34:19 14:39:32 56° 260° (W) 14:44:47 435.225
YUBILEINY 23 Nov 14:36:00 14:44:42 73° 265° (W) 14:53:19 435.215
ITUPSAT 1 23 Nov 14:40:48 14:45:32 55° 291° (WNW) 14:50:12 437.325
SWISSCUBE 23 Nov 14:53:04 14:57:34 40° 294° (WNW) 15:02:02 437.505
JAS-2 23 Nov 14:53:50 14:59:52 26° 52° (NE) 15:05:56 435.910
CUSAT 1 23 Nov 14:54:43 14:55:50 12° 294° (WNW) 14:56:56 437.405
RS-15 23 Nov 14:57:48 15:03:50 17° 96° (E) 15:09:51 29.354- 29.394
KKS-1 23 Nov 14:59:46 15:04:11 63° 102° (ESE) 15:08:35 437.445
DANDE 23 Nov 15:08:46 15:09:16 10° 295° (WNW) 15:09:46 436.750
O/OREOS (USA 219) 23 Nov 15:09:54 15:13:48 28° 50° (NE) 15:17:42 437.305
HORYU 2 23 Nov 15:18:33 15:22:43 40° 262° (W) 15:26:55 437.375
BEESAT 23 Nov 15:25:15 15:29:07 25° 299° (WNW) 15:32:57 436.000
AUBIESAT-1 23 Nov 15:28:53 15:32:44 24° 306° (NW) 15:36:35 437.475
AO-7 23 Nov 15:29:44 15:38:03 87° 250° (WSW) 15:46:27 29.400- 29.500
M-CUBED/EXP-1 PRIME 23 Nov 15:32:14 15:35:53 21° 307° (NW) 15:39:33 437.505
CUTE-I 23 Nov 15:42:18 15:44:31 13° 49° (NE) 15:46:43 437.470
STARS 23 Nov 16:01:41 16:05:56 48° 291° (WNW) 16:10:09 437.465
MaSat-1 23 Nov 16:09:32 16:12:22 43° 118° (ESE) 16:14:58 437.345
ITUPSAT 1 23 Nov 16:21:49 16:22:25 10° 311° (NW) 16:23:00 437.325
YUBILEINY 23 Nov 16:34:41 16:39:54 18° 288° (WNW) 16:45:06 435.215
JAS-2 23 Nov 16:36:12 16:43:53 84° 73° (ENE) 16:51:48 435.910
Cubesat XI-IV 23 Nov 16:36:55 16:41:33 30° 61° (ENE) 16:46:11 437.490
KKS-1 23 Nov 16:37:19 16:40:26 19° 301° (WNW) 16:43:32 437.445
VERMONT LUNAR 23 Nov 16:41:40 16:43:28 13° 164° (SSE) 16:45:15 437.305
O/OREOS (USA 219) 23 Nov 16:49:08 16:53:22 43° 250° (WSW) 16:57:36 437.305
RS-15 23 Nov 17:03:04 17:13:46 64° 120° (ESE) 17:24:31 29.354- 29.394
CUTE-I 23 Nov 17:18:18 17:23:34 60° 69° (ENE) 17:28:51 437.470
MOZHAYETS 4 23 Nov 17:21:00 17:25:37 58° 101° (E) 17:30:13
AO-7 23 Nov 17:25:50 17:32:01 23° 271° (W) 17:38:15 29.400- 29.500
MaSat-1 23 Nov 17:45:40 17:47:09 13° 314° (NW) 17:48:34 437.345
PRISM 23 Nov 17:56:15 17:59:54 27° 95° (E) 18:03:30 437.425
PHONESAT 2.4 23 Nov 17:56:44 17:59:18 18° 173° (S) 18:01:51 2401.200-2431.200
Cubesat XI-IV 23 Nov 18:16:14 18:21:27 50° 260° (W) 18:26:40 437.490
VERMONT LUNAR 23 Nov 18:18:36 18:21:09 18° 181° (S) 18:23:43 437.305
STRAND 1 23 Nov 18:21:34 18:25:29 22° 91° (E) 18:29:22 437.568
JAS-2 23 Nov 18:23:34 18:29:44 26° 273° (W) 18:36:05 435.910
GONETS M04 23 Nov 18:28:59 18:36:57 35° 63° (ENE) 18:44:48
HO-68 23 Nov 18:50:34 18:56:44 32° 55° (NE) 19:02:56 435.675
CUBESAT XI-V 23 Nov 18:54:49 18:59:18 43° 98° (E) 19:03:44 437.345
AIST 1 23 Nov 18:55:15 18:56:36 11° 80° (E) 18:57:56
MOZHAYETS 4 23 Nov 18:58:58 19:02:29 22° 299° (WNW) 19:06:00
CUTE-I 23 Nov 18:59:45 19:04:02 24° 268° (W) 19:08:19 437.470
CANX-2 23 Nov 19:00:44 19:03:20 16° 59° (ENE) 19:05:57 2200.000
AAUSAT CUBESAT 2 23 Nov 19:00:52 19:01:33 10° 54° (NE) 19:02:15 437.432
COMPASS 1 23 Nov 19:12:27 19:14:47 15° 58° (ENE) 19:17:08 437.405
RS-15 23 Nov 19:15:51 19:26:31 55° 327° (NNW) 19:37:23 29.354- 29.394
DOVE 4 23 Nov 19:16:57 19:19:07 14° 57° (ENE) 19:21:14 437.250
PCSat 23 Nov 19:26:52 19:30:04 16° 105° (ESE) 19:33:17 145.827
PRISM 23 Nov 19:31:37 19:35:32 37° 293° (WNW) 19:39:26 437.425
CUTE 1.7 & AOD 2 23 Nov 19:34:28 19:38:07 29° 65° (ENE) 19:41:47 437.475
PHONESAT 2.4 23 Nov 19:34:55 19:37:20 17° 190° (S) 19:39:45 2401.200-2431.200
GOMX 1 23 Nov 19:44:44 19:48:48 29° 66° (ENE) 19:52:40 467.674
UKube-1 23 Nov 19:50:14 19:53:07 18° 58° (ENE) 19:56:01 .
VERMONT LUNAR 23 Nov 19:57:12 19:58:50 13° 198° (SSW) 20:00:28 437.305
BRITE-PL 23 Nov 19:59:18 20:04:08 52° 71° (ENE) 20:08:38 437.365/2234.400
STRAND 1 23 Nov 20:00:02 20:05:06 62° 290° (WNW) 20:10:07 437.568
Oscar 11 23 Nov 20:02:56 20:06:16 23° 62° (ENE) 20:09:38 145.826/435.025
CUBEBUG 2 23 Nov 20:03:23 20:05:43 15° 58° (ENE) 20:08:01 437.445
UWE-3 23 Nov 20:09:06 20:11:24 15° 58° (ENE) 20:13:41 435.000/436.395/437.385
SEEDS 23 Nov 20:10:17 20:14:23 55° 71° (ENE) 20:18:31 437.485
CINEMA 3 23 Nov 20:10:30 20:14:01 24° 64° (ENE) 20:17:27 145.822/145.860
DX 1 23 Nov 20:21:54 20:25:48 33° 65° (ENE) 20:29:44 434.975-435.025
GONETS M04 23 Nov 20:25:43 20:34:28 68° 267° (W) 20:43:09
AIST 1 23 Nov 20:29:07 20:33:31 90° 285° (WNW) 20:37:59
AAUSAT CUBESAT 2 23 Nov 20:32:20 20:36:28 71° 74° (ENE) 20:40:39 437.432
CUBESAT XI-V 23 Nov 20:32:36 20:36:35 28° 297° (WNW) 20:40:32 437.345
CANX-2 23 Nov 20:34:36 20:38:48 70° 258° (WSW) 20:43:03 2200.000
HO-68 23 Nov 20:36:50 20:43:59 69° 256° (WSW) 20:51:12 435.675
VELOX 1 23 Nov 20:41:16 20:44:27 20° 59° (ENE) 20:47:39 145.980
COMPASS 1 23 Nov 20:45:49 20:49:59 76° 257° (WSW) 20:54:12 437.405
ZACube-1 23 Nov 20:48:26 20:52:00 27° 65° (ENE) 20:55:33 437.345
DELFI C3 23 Nov 20:50:40 20:54:37 50° 71° (ENE) 20:58:36 145.870
HUMSAT D 23 Nov 20:51:34 20:54:34 20° 62° (ENE) 20:57:34 437.325/437.525
DOVE 4 23 Nov 20:51:42 20:56:20 88° 75° (ENE) 21:00:44 437.250
50 SAT 23 Nov 20:57:38 21:00:29 19° 61° (ENE) 21:03:20 437.505
AISAT 23 Nov 21:05:00 21:08:55 31° 64° (ENE) 21:12:51 437.250
PCSat 23 Nov 21:07:16 21:12:42 85° 124° (SE) 21:18:10 145.827
CUTE 1.7 & AOD 2 23 Nov 21:10:09 21:13:59 34° 264° (W) 21:17:52 437.475
GOMX 1 23 Nov 21:22:23 21:26:52 39° 262° (W) 21:31:06 467.674
BEESAT 3 23 Nov 21:22:41 21:26:42 54° 124° (SE) 21:30:48 437.485
FUNcube-1 23 Nov 21:23:32 21:27:40 58° 72° (ENE) 21:31:47 145.935
UKube-1 23 Nov 21:24:30 21:28:50 68° 257° (WSW) 21:33:12 .
CUBEBUG 1 23 Nov 21:28:09 21:31:29 21° 61° (ENE) 21:34:49 437.445
RS-15 23 Nov 21:31:41 21:41:42 38° 360° (N) 21:51:59 29.354- 29.394
BEESAT 2 23 Nov 21:35:57 21:40:03 65° 126° (SE) 21:44:14 435.950
CUBEBUG 2 23 Nov 21:37:39 21:41:55 78° 257° (WSW) 21:46:08 437.445
Oscar 11 23 Nov 21:38:02 21:42:11 48° 261° (W) 21:46:23 145.826/435.025
BRITE-PL 23 Nov 21:38:55 21:42:53 23° 267° (W) 21:46:39 437.365/2234.400
STRAND 1 23 Nov 21:41:20 21:43:19 12° 310° (NW) 21:45:17 437.568
UWE-3 23 Nov 21:43:12 21:47:26 78° 257° (WSW) 21:51:39 435.000/436.395/437.385
CINEMA 3 23 Nov 21:46:54 21:51:05 42° 262° (W) 21:55:09 145.822/145.860
SEEDS 23 Nov 21:47:45 21:50:35 18° 270° (W) 21:53:27 437.485
ANTELSAT 23 Nov 21:52:31 21:54:32 13° 88° (E) 21:56:35 437.575/2403.000
DX 1 23 Nov 21:58:06 22:02:03 32° 263° (W) 22:06:01 434.975-435.025
